Wind_Speed
55 55 53 53 54 54 54 53 54 52 53 53 54 52 52 53 54 55 56 59 59 61 60 63 62 58 57 58 53 46 36 29 28 26 20 15 11 18 22 28 35 42 51 59 61
50 50 49 50 49 49 49 48 48 49 50 50 51 50 51 50 52 54 55 57 59 62 64 64 63 64 62 61 58 56 49 40 31 26 23 20 19 11 13 19 24 33 41 52 59
45 45 45 45 44 43 44 43 44 44 45 45 46 49 51 50 51 52 55 58 59 61 63 66 66 66 64 64 63 62 59 47 45 39 31 25 22 16 17 11 11 15 34 43 53
38 40 39 39 39 37 38 39 41 40 41 42 44 45 47 48 50 52 55 57 59 62 62 65 67 66 68 67 67 68 64 58 53 48 42 37 30 25 22 20 18 16 16 27 45
34 34 34 34 36 35 36 35 36 36 38 40 41 43 43 46 48 51 53 55 59 60 64 65 67 67 67 68 70 69 69 68 56 58 49 43 40 37 32 27 24 17 20 21 23
30 31 30 31 31 32 33 33 34 34 34 36 39 41 43 44 47 50 53 56 59 60 62 65 66 69 70 70 70 73 73 70 66 55 59 50 43 38 37 34 31 27 18 19 24
26 25 26 26 27 29 29 30 33 34 35 37 39 40 41 43 46 50 53 55 57 60 63 66 67 69 72 72 71 72 75 72 75 64 61 58 50 44 37 37 33 36 30 22 22
21 21 22 23 25 26 27 28 30 33 35 35 37 40 41 43 45 49 51 55 58 60 63 66 68 70 72 73 73 74 75 78 76 73 65 61 57 51 45 38 38 34 33 23 24
17 19 21 23 24 24 26 27 30 32 35 36 37 39 41 42 44 47 51 54 57 60 63 65 68 71 72 75 76 78 76 80 77 74 70 65 61 60 52 45 43 35 33 26 22
16 18 19 20 21 23 25 25 29 32 34 34 36 38 41 44 47 48 51 53 56 60 64 67 69 71 73 76 79 81 80 82 83 79 72 70 66 63 61 51 47 40 32 29 25
14 15 16 18 19 22 24 26 29 30 31 35 39 41 43 46 47 49 52 54 58 62 65 69 71 74 76 79 80 84 82 84 84 81 77 74 69 67 64 55 50 44 36 28 26
13 15 16 17 20 22 24 27 28 29 34 38 40 43 45 47 48 50 54 56 59 62 65 70 73 75 79 82 82 85 84 84 83 84 78 76 72 70 67 63 54 46 40 30 25
14 16 16 18 19 21 24 25 29 31 36 39 41 43 45 48 49 51 53 57 60 63 67 71 74 78 82 85 85 86 87 85 84 80 76 75 76 71 71 68 60 53 48 35 22
14 15 15 17 16 19 22 25 28 33 36 40 42 43 46 47 50 52 56 59 61 65 68 73 76 81 84 87 92 92 87 84 82 78 71 74 77 73 70 72 68 60 50 44 31
15 16 17 18 19 21 24 27 31 35 39 42 43 45 47 49 51 53 56 60 64 67 70 74 78 83 84 91 97 96 88 85 80 76 72 74 75 76 72 72 69 63 54 43 38
16 18 20 22 23 25 27 29 33 37 40 43 45 47 47 49 53 54 59 62 66 70 72 75 80 85 89 93 98 98 94 85 79 75 72 73 74 76 77 74 71 68 59 47 39
21 21 23 23 26 28 31 33 35 39 43 45 48 48 48 51 55 57 60 65 69 72 75 78 82 86 92 95 100 101 92 87 80 75 73 74 76 77 77 75 73 69 61 53 44
26 26 26 27 30 33 35 37 40 43 46 50 51 50 52 55 57 59 63 67 70 74 79 82 85 89 93 96 103 104 93 85 78 73 72 76 75 76 75 73 72 69 64 57 46
30 30 32 34 37 38 41 42 44 47 51 54 55 54 57 61 60 63 66 69 71 76 83 86 89 92 96 100 103 105 99 91 76 74 68 74 74 74 77 76 71 65 63 58 49
34 36 37 39 40 42 43 45 48 51 54 57 58 58 61 64 64 66 69 71 74 79 85 90 95 95 98 101 109 103 101 96 80 74 72 71 73 72 76 76 72 68 63 60 56
41 41 42 43 44 45 46 49 52 55 58 60 61 62 64 67 68 70 74 75 80 85 90 90 97 101 99 104 112 102 102 93 84 75 74 69 72 72 75 74 73 73 66 59 58
45 45 46 46 47 49 50 52 56 59 61 63 63 65 65 67 72 75 77 82 88 90 92 95 95 102 104 108 112 106 97 88 84 76 71 73 69 70 68 71 71 75 71 61 60
49 49 50 50 52 53 55 57 60 61 63 65 66 66 68 70 73 77 84 91 95 95 98 100 100 101 106 111 108 100 97 90 85 80 70 79 67 72 68 75 73 77 70 65 63
54 54 56 57 58 58 61 62 65 67 69 68 67 70 72 76 77 85 89 92 97 100 101 104 105 104 111 119 109 97 93 89 89 82 72 79 71 78 80 77 70 70 67 70 64
60 58 59 62 63 66 66 69 69 71 69 70 71 73 75 78 80 87 92 98 103 104 106 108 106 106 118 117 107 92 88 89 87 84 82 77 83 82 82 81 84 77 69 67 68
63 65 65 65 67 69 71 73 72 74 77 77 76 77 81 84 87 90 97 103 105 108 109 109 109 111 118 116 108 91 90 86 86 84 83 86 78 87 85 82 82 82 77 69 66
69 70 70 70 72 74 75 74 76 81 79 83 81 83 84 86 88 95 100 107 107 110 110 112 112 120 121 111 100 88 88 86 82 84 91 86 89 91 88 84 85 84 80 71 65
Wind_Direction
91 89 86 84 83 82 81 78 76 75 73 71 69 67 63 61 58 56 53 52 48 47 44 46 43 43 39 37 35 30 29 25 25 24 11 359 301 273 275 260 250 244 243 243 243
88 86 85 83 81 79 78 76 73 70 67 66 66 63 60 57 53 50 49 47 44 43 42 41 41 40 37 34 32 30 28 24 20 18 14 11 2 324 277 263 255 244 240 242 242
84 85 85 83 80 77 76 73 72 67 66 62 60 58 55 51 50 46 44 41 41 40 39 38 37 37 35 34 30 30 26 25 21 15 7 10 7 0 350 306 267 265 246 239 241
83 84 80 79 75 71 70 70 67 64 61 57 55 53 50 46 44 42 40 37 35 35 34 35 34 32 33 31 30 27 26 24 24 17 12 8 6 10 5 359 331 298 280 255 245
81 78 75 75 72 70 68 64 62 58 55 53 50 48 44 41 39 38 36 33 32 31 31 30 29 29 28 28 28 26 24 22 18 20 16 9 10 5 3 4 355 320 291 280 263
81 77 72 70 67 64 60 57 54 54 51 48 45 41 39 37 33 32 32 30 28 27 27 26 26 24 24 23 23 23 22 22 19 14 17 12 7 6 3 356 355 346 304 270 262
79 74 69 66 62 58 54 49 46 45 40 39 36 34 33 29 29 27 26 25 25 23 23 22 22 21 20 19 19 18 19 16 19 15 12 14 8 4 357 355 349 344 335 298 268
68 65 61 60 54 50 50 47 43 39 35 32 30 30 28 27 24 23 22 21 20 20 20 19 18 19 17 17 15 14 14 14 15 15 11 10 10 3 356 350 344 336 333 308 280
61 58 48 44 46 46 43 39 33 33 32 29 27 24 25 24 23 21 19 18 16 17 16 16 16 15 14 14 11 10 11 12 10 11 11 8 8 5 359 348 345 332 326 312 281
55 49 42 38 38 36 32 28 27 27 25 20 20 18 19 19 19 17 17 15 15 15 14 13 13 12 12 10 8 7 7 8 7 9 9 8 7 4 0 352 347 339 324 314 296
40 37 31 26 26 25 21 20 20 17 13 14 12 13 14 15 14 13 12 12 12 11 10 9 10 9 9 7 6 5 4 4 4 5 4 6 6 3 359 355 351 345 330 316 298
17 16 16 14 15 14 12 14 9 7 8 8 9 10 9 10 9 9 10 9 9 8 8 8 8 6 6 4 4 2 1 2 2 2 3 359 4 2 357 358 355 352 345 324 302
360 356 358 3 2 4 2 0 359 1 4 5 5 5 4 6 6 6 7 5 6 5 6 5 5 5 3 2 2 360 359 359 359 358 359 355 358 359 357 355 355 353 350 337 304
341 343 347 348 348 353 351 351 354 357 358 359 359 0 0 2 0 3 4 4 4 3 4 3 2 2 2 2 360 358 357 356 357 358 354 353 353 356 357 354 353 350 347 344 322
327 329 330 334 336 341 343 343 346 349 350 350 352 353 353 355 355 357 360 0 359 360 0 360 359 359 360 360 359 358 356 356 355 355 354 351 349 352 356 355 352 350 349 344 329
317 318 323 328 330 333 335 334 338 342 342 342 345 346 349 350 351 354 356 356 355 354 356 356 356 357 355 355 356 357 356 355 355 353 347 350 349 349 353 354 354 352 350 345 336
313 315 316 318 321 324 327 331 333 334 336 337 339 342 345 347 347 350 352 354 353 352 353 353 354 353 353 353 353 353 357 356 355 352 347 349 345 349 350 350 353 352 347 346 341
306 309 310 312 314 318 322 324 327 330 331 333 336 338 342 344 345 348 350 350 349 350 350 350 351 350 348 349 350 351 354 353 351 353 346 347 344 344 346 350 350 351 347 345 339
299 300 303 306 310 315 319 322 325 325 328 330 333 336 338 340 342 344 346 346 346 346 348 347 347 349 347 346 346 348 350 352 348 351 346 343 341 343 340 344 347 347 348 346 341
293 298 300 305 308 313 317 319 321 322 324 327 331 333 334 337 339 341 341 342 341 344 345 346 345 345 345 344 343 345 348 349 346 347 346 340 341 340 337 339 341 345 344 344 343
292 297 300 303 308 311 314 316 318 321 324 326 327 329 330 331 334 336 337 339 338 342 341 343 344 344 343 342 341 343 346 347 345 343 342 341 337 337 335 336 337 340 340 340 344
290 293 297 299 304 307 309 313 316 320 322 323 323 325 326 329 331 333 335 335 336 340 341 340 340 341 340 340 340 340 342 342 340 340 338 337 336 338 333 333 335 331 335 337 340
286 290 293 297 301 303 307 310 313 316 318 321 323 323 324 327 330 331 332 334 335 336 337 339 338 340 337 339 339 339 339 339 338 338 334 335 337 340 337 334 329 328 330 334 338
286 290 294 297 298 302 305 307 311 313 317 319 319 321 323 325 327 329 334 334 334 334 335 335 335 336 335 338 339 336 335 334 335 335 332 333 339 336 336 338 333 326 327 328 331
287 289 291 295 300 301 304 308 310 313 314 316 318 319 322 324 326 329 332 330 331 331 333 334 334 334 332 336 337 333 328 329 330 329 332 331 331 332 333 334 334 332 322 321 323
284 288 291 295 298 302 304 305 308 311 312 312 317 319 318 322 326 328 328 329 328 326 327 329 331 331 330 334 334 330 326 326 326 325 325 327 329 331 330 330 330 324 323 320 320
285 289 292 294 296 298 300 302 304 307 310 312 314 317 321 322 323 325 325 324 324 326 324 325 326 329 330 331 331 326 322 323 321 320 322 323 324 325 326 327 328 328 322 315 317
Height
10813 10814 10814 10814 10814 10813 10813 10813 10811 10810 10808 10807 10804 10803 10800 10797 10793 10789 10785 10780 10776 10770 10763 10755 10747 10741 10735 10728 10721 10714 10706 10699 10692 10685 10679 10673 10668 10664 10660 10657 10656 10657 10661 10662 10664
10820 10819 10820 10819 10819 10819 10818 10817 10816 10814 10812 10810 10808 10806 10802 10798 10794 10791 10786 10782 10777 10770 10763 10757 10751 10743 10734 10728 10721 10715 10706 10699 10692 10685 10677 10669 10663 10658 10653 10649 10646 10645 10646 10648 10651
10825 10825 10824 10824 10824 10823 10822 10820 10819 10818 10816 10813 10810 10807 10802 10800 10796 10792 10787 10782 10777 10772 10765 10758 10751 10745 10738 10730 10723 10715 10706 10698 10690 10683 10675 10667 10659 10652 10646 10643 10639 10636 10635 10635 10638
10830 10830 10829 10828 10827 10826 10825 10824 10822 10820 10817 10815 10812 10808 10805 10801 10797 10791 10787 10782 10777 10771 10765 10759 10752 10745 10738 10731 10723 10715 10706 10698 10690 10681 10672 10663 10656 10649 10643 10637 10633 10630 10628 10626 10627
10834 10833 10833 10832 10831 10830 10829 10826 10825 10822 10819 10817 10813 10809 10806 10802 10797 10793 10788 10783 10776 10770 10763 10756 10750 10744 10737 10730 10723 10715 10705 10696 10685 10678 10669 10660 10652 10644 10639 10634 10630 10625 10621 10619 10618
10837 10836 10836 10835 10834 10832 10830 10829 10826 10823 10821 10817 10814 10810 10806 10803 10798 10793 10788 10782 10775 10769 10763 10757 10750 10742 10735 10728 10720 10712 10704 10696 10685 10674 10666 10657 10649 10642 10636 10629 10624 10620 10616 10612 10610
10840 10839 10838 10837 10836 10834 10832 10830 10828 10826 10822 10818 10815 10811 10807 10803 10798 10793 10787 10781 10776 10769 10762 10755 10748 10741 10733 10725 10718 10709 10701 10692 10684 10673 10662 10653 10644 10636 10629 10623 10616 10611 10605 10602 10600
10842 10841 10840 10838 10837 10835 10833 10831 10829 10826 10822 10819 10816 10811 10807 10802 10797 10792 10787 10780 10775 10768 10761 10753 10746 10739 10730 10721 10713 10706 10697 10688 10678 10668 10657 10648 10639 10630 10623 10615 10608 10601 10596 10591 10588
10842 10841 10840 10839 10837 10836 10834 10831 10829 10826 10822 10819 10816 10811 10807 10802 10797 10791 10785 10780 10773 10767 10760 10752 10744 10736 10727 10719 10710 10701 10692 10683 10672 10663 10653 10642 10632 10623 10615 10605 10598 10590 10584 10580 10577
10843 10842 10840 10839 10837 10835 10833 10831 10829 10825 10822 10819 10814 10811 10806 10801 10796 10790 10785 10779 10772 10765 10758 10750 10742 10733 10726 10717 10707 10697 10687 10678 10668 10657 10648 10637 10627 10616 10606 10596 10587 10578 10570 10565 10562
10841 10841 10839 10837 10836 10834 10833 10830 10827 10824 10822 10818 10814 10809 10804 10799 10793 10788 10782 10776 10769 10762 10754 10747 10739 10731 10722 10713 10703 10692 10682 10672 10661 10650 10638 10631 10621 10611 10601 10589 10578 10568 10559 10552 10548
10841 10839 10838 10836 10835 10833 10831 10827 10826 10823 10819 10816 10811 10806 10801 10796 10791 10785 10779 10773 10766 10759 10752 10744 10736 10727 10718 10710 10699 10687 10676 10665 10654 10644 10632 10620 10612 10603 10591 10580 10568 10558 10550 10543 10538
10838 10837 10836 10834 10832 10830 10828 10826 10823 10820 10817 10812 10808 10803 10798 10793 10787 10782 10776 10770 10763 10756 10748 10740 10732 10723 10715 10705 10695 10684 10671 10659 10648 10636 10626 10614 10603 10595 10584 10571 10559 10550 10541 10534 10529
10836 10834 10833 10831 10830 10827 10826 10823 10821 10817 10814 10809 10805 10799 10794 10789 10784 10778 10772 10766 10759 10752 10744 10735 10727 10719 10710 10701 10690 10678 10665 10653 10641 10632 10622 10610 10598 10588 10577 10564 10552 10541 10532 10525 10519
10832 10831 10830 10828 10827 10825 10822 10819 10816 10813 10809 10806 10801 10797 10792 10786 10780 10775 10769 10762 10755 10747 10739 10732 10723 10714 10705 10696 10686 10674 10660 10649 10634 10623 10614 10604 10594 10582 10571 10559 10546 10534 10524 10517 10511
10828 10827 10826 10824 10822 10820 10817 10814 10811 10808 10805 10802 10798 10793 10789 10783 10778 10772 10764 10757 10750 10742 10733 10725 10716 10707 10698 10690 10681 10668 10655 10642 10629 10615 10606 10598 10587 10575 10564 10553 10542 10530 10519 10511 10504
10824 10822 10820 10819 10817 10814 10811 10809 10807 10803 10800 10796 10792 10788 10784 10779 10773 10766 10758 10750 10743 10734 10726 10719 10710 10700 10690 10681 10671 10660 10649 10636 10626 10610 10597 10589 10579 10568 10558 10546 10537 10526 10514 10503 10496
10819 10816 10814 10812 10810 10808 10806 10803 10801 10797 10793 10789 10785 10782 10777 10772 10766 10759 10752 10744 10737 10728 10717 10708 10702 10693 10682 10672 10662 10652 10641 10626 10614 10605 10589 10577 10570 10562 10550 10540 10530 10520 10510 10498 10488
10813 10811 10808 10806 10804 10802 10800 10797 10794 10791 10786 10782 10778 10774 10769 10764 10758 10751 10745 10737 10729 10721 10710 10700 10691 10684 10672 10659 10651 10641 10631 10620 10607 10598 10587 10572 10565 10554 10541 10532 10522 10512 10503 10492 10482
10807 10805 10802 10801 10798 10796 10793 10790 10787 10783 10779 10774 10770 10765 10759 10753 10748 10742 10736 10730 10722 10713 10704 10692 10679 10673 10662 10648 10637 10627 10619 10608 10595 10587 10581 10567 10555 10547 10535 10525 10514 10505 10496 10486 10476
10798 10797 10795 10793 10791 10788 10785 10782 10779 10775 10771 10766 10760 10756 10750 10744 10737 10731 10725 10719 10712 10704 10695 10687 10672 10657 10652 10638 10625 10614 10606 10597 10586 10576 10566 10561 10546 10537 10528 10516 10505 10495 10488 10479 10469
10790 10788 10786 10784 10783 10779 10777 10774 10770 10767 10762 10758 10752 10747 10742 10736 10728 10721 10715 10708 10701 10695 10687 10676 10667 10651 10640 10631 10614 10601 10592 10583 10574 10569 10557 10546 10536 10527 10518 10508 10498 10488 10479 10470 10461
10780 10779 10777 10775 10773 10770 10767 10764 10760 10757 10753 10749 10743 10738 10732 10727 10720 10711 10705 10695 10687 10680 10674 10666 10656 10648 10629 10622 10605 10589 10579 10570 10563 10555 10547 10533 10523 10514 10507 10496 10487 10477 10468 10459 10452
10769 10768 10766 10764 10761 10759 10756 10754 10750 10746 10742 10738 10733 10729 10723 10716 10709 10699 10691 10681 10673 10667 10658 10651 10641 10632 10614 10603 10590 10571 10563 10557 10549 10542 10535 10518 10515 10496 10490 10484 10475 10466 10457 10447 10439
10758 10757 10755 10752 10750 10747 10745 10742 10738 10735 10729 10726 10723 10717 10711 10705 10698 10686 10678 10669 10660 10652 10646 10635 10630 10620 10600 10590 10575 10561 10550 10538 10528 10517 10515 10510 10497 10490 10478 10468 10458 10451 10443 10434 10426
10747 10744 10742 10740 10737 10735 10732 10729 10725 10721 10717 10712 10710 10705 10699 10692 10684 10676 10669 10657 10649 10637 10628 10618 10614 10608 10590 10580 10566 10548 10535 10528 10515 10504 10499 10493 10489 10475 10466 10455 10444 10435 10426 10418 10410
10732 10731 10729 10727 10723 10720 10718 10715 10713 10707 10703 10698 10696 10692 10684 10676 10671 10663 10654 10644 10637 10628 10618 10607 10597 10592 10583 10569 10559 10542 10527 10518 10509 10494 10486 10477 10469 10463 10453 10441 10429 10419 10408 10399 10391